Location: Fort Collins
(40.5850°N, 105.0840°W)
Time: 17:35:56
(UTC-06:00)

Cosmos 2297 Rocket - Visible Passes

Search period start: 22 August 2014 00:00
Search period end: 01 September 2014 00:00
Orbit: 841 x 842 km, 71.0° (Epoch: 22 August)

Date Brightness Start Highest point End Pass type
(mag) Time Alt. Az. Time Alt. Az. Time Alt. Az.
22 Aug 5.0 02:41:27 10° NNE 02:44:31 15° NE 02:47:34 10° E visible
22 Aug 2.1 04:23:44 10° NNW 04:29:24 88° ENE 04:35:02 10° SSE visible
23 Aug 5.0 02:26:34 10° NNE 02:29:27 14° NE 02:32:19 10° ENE visible
23 Aug 2.2 04:08:43 10° NNW 04:14:24 84° ENE 04:20:02 10° SSE visible
24 Aug 5.0 02:11:43 10° NNE 02:14:23 13° NE 02:17:03 10° ENE visible
24 Aug 2.2 03:53:43 10° NNW 03:59:23 80° ENE 04:05:01 10° SSE visible
24 Aug 3.8 05:40:09 10° WNW 05:42:38 13° W 05:45:07 10° WSW visible
25 Aug 4.9 01:56:53 10° NNE 01:59:19 13° NE 02:01:45 10° ENE visible
25 Aug 2.2 03:38:42 10° NNW 03:44:22 76° ENE 03:47:33 27° SSE visible
25 Aug 3.7 05:24:54 10° WNW 05:27:40 14° W 05:29:07 13° WSW visible
26 Aug 4.9 01:42:05 10° NNE 01:44:16 12° NE 01:46:26 10° ENE visible
26 Aug 2.3 03:23:42 10° NNW 03:29:22 72° ENE 03:30:13 61° ESE visible
26 Aug 3.8 05:09:40 10° WNW 05:11:53 14° W 05:11:53 14° W visible
27 Aug 4.9 01:27:18 10° NNE 01:29:12 12° NE 01:31:05 10° ENE visible
27 Aug 2.5 03:08:42 10° NNW 03:13:48 64° NNE 03:13:48 64° NNE visible
27 Aug 4.0 04:54:29 10° WNW 04:55:30 13° WNW 04:55:30 13° WNW visible
28 Aug 4.9 01:12:36 10° NNE 01:14:08 11° NE 01:15:39 10° ENE visible
28 Aug 3.0 02:53:43 10° NNW 02:57:49 47° N 02:57:49 47° N visible
28 Aug 4.3 04:39:19 10° WNW 04:39:33 11° WNW 04:39:33 11° WNW visible
29 Aug 4.9 00:58:00 10° NNE 00:59:03 11° NE 01:00:06 10° NE visible
29 Aug 3.4 02:38:43 10° NNW 02:42:07 36° N 02:42:07 36° N visible
30 Aug 3.8 02:23:43 10° NNW 02:26:35 30° N 02:26:35 30° N visible
31 Aug 4.0 02:08:44 10° NNW 02:11:11 26° N 02:11:11 26° N visible
